Temp
71 71 72 71 71 71 71 71 70 70 70 70 70 70 71 72 72 72 72 72 72 71 71 70 69 69 69 67 67 66 65 65 65 65 65 65 64 64 64 64 64 64
69 70 72 72 71 71 72 72 71 71 70 70 71 71 72 72 72 72 72 72 72 71 71 70 69 69 68 67 67 66 65 64 64 65 64 64 64 64 64 64 64 64
68 68 69 70 71 71 72 72 72 72 71 71 71 71 71 72 71 72 72 71 71 71 71 70 69 69 69 68 67 66 66 65 64 64 64 64 64 64 64 64 64 64
69 69 69 70 71 71 72 72 72 72 72 71 71 72 72 72 71 71 71 71 71 71 71 70 69 69 69 68 67 66 66 66 66 65 64 64 64 64 64 64 64 64
68 69 69 70 69 71 71 72 71 71 71 72 71 71 71 71 71 71 71 71 71 71 70 70 69 69 68 68 67 66 66 66 66 65 64 64 64 64 65 64 63 63
69 69 69 69 69 69 69 71 71 71 71 71 71 72 72 72 71 71 71 71 71 70 70 70 69 69 68 68 67 66 66 65 65 65 64 64 64 64 65 65 64 63
68 68 68 68 68 68 69 70 71 71 72 72 72 71 72 72 71 72 72 72 72 71 70 70 69 68 68 68 67 66 66 66 65 65 64 64 64 64 65 65 64 64
67 68 68 68 67 67 68 69 70 71 72 72 71 72 72 72 72 72 72 72 72 72 71 70 70 69 68 68 67 66 66 66 66 65 64 64 64 64 64 65 65 64
68 67 68 67 67 67 67 68 69 71 72 72 72 72 72 72 72 72 72 72 72 72 71 71 70 69 69 68 67 67 66 65 66 65 64 64 64 64 64 65 65 64
67 67 67 67 67 68 68 69 71 71 72 72 73 73 72 72 73 73 72 72 72 72 71 71 70 70 69 68 68 67 66 66 65 65 65 64 64 64 64 65 65 64
66 67 67 67 67 69 69 70 71 72 73 73 73 72 73 72 72 73 72 72 71 72 71 71 70 70 69 68 68 68 67 67 66 65 65 65 65 65 66 65 65 65
66 66 67 67 68 69 70 71 72 73 73 73 74 73 73 73 72 72 73 72 72 72 72 72 71 70 69 69 68 68 67 67 67 66 65 65 65 65 65 65 65 65
66 67 68 68 69 70 71 72 73 73 73 73 73 73 73 72 73 72 72 73 73 73 72 72 71 70 69 69 69 68 68 67 66 66 66 66 66 65 66 65 65 65
68 68 69 70 70 71 72 73 74 74 73 74 73 73 73 73 72 72 72 72 73 72 72 72 71 70 70 69 69 68 68 67 67 66 66 66 66 66 66 65 65 65
69 70 70 71 71 72 72 73 74 74 74 73 73 73 73 73 73 73 72 72 72 72 72 72 71 70 70 70 69 68 68 67 68 67 67 66 65 65 65 65 65 65
71 71 71 71 72 72 72 73 73 74 74 73 73 73 73 73 73 73 73 72 71 72 72 71 71 71 67 62 62 68 68 68 68 67 67 66 65 65 64 65 65 65
71 71 71 71 72 72 73 73 73 73 73 73 73 72 73 72 72 72 72 72 72 71 71 71 71 72 61 54 54 58 67 68 67 66 66 66 66 65 64 64 64 65
71 71 71 71 72 72 72 73 73 73 73 73 73 72 72 72 71 71 72 72 71 71 71 71 71 65 55 52 53 53 59 68 68 67 66 66 66 66 65 65 64 64
71 71 71 71 71 72 72 72 72 72 72 72 72 73 73 71 71 72 71 72 71 71 70 71 71 61 52 52 51 52 53 62 68 67 66 66 66 66 65 65 64 63
71 71 71 71 72 72 72 72 72 72 72 73 73 72 72 72 72 71 71 71 71 71 71 72 71 61 51 51 51 50 51 57 70 68 67 66 66 66 66 65 64 64
63 63 65 69 71 72 71 71 71 71 72 72 72 72 72 71 71 71 71 71 71 71 71 71 71 58 51 50 50 49 50 54 70 69 68 67 66 66 66 65 65 64
62 62 61 61 61 65 68 70 71 71 71 72 71 72 72 72 72 72 71 70 71 71 71 70 72 56 50 49 49 49 49 60 69 69 68 67 66 65 65 65 65 64
64 63 63 63 63 62 62 64 67 70 71 72 71 71 71 71 71 71 72 71 70 70 70 70 71 59 49 49 48 47 50 64 68 68 68 67 66 65 65 65 64 65
64 64 63 63 63 64 64 64 63 66 70 71 71 70 70 71 71 71 72 71 71 70 70 70 71 62 48 48 48 47 54 65 67 67 66 66 66 65 65 64 64 62
64 64 64 64 63 64 65 65 64 64 65 69 71 71 71 71 70 70 70 71 71 71 65 69 71 62 46 48 47 47 54 66 67 67 66 65 65 64 64 64 64 61
63 62 63 64 64 65 65 65 65 65 65 64 68 71 71 71 69 69 69 69 70 70 70 70 71 66 51 47 47 47 50 66 68 67 66 64 63 63 63 63 63 62
MSLP
1008.85 1009.17 1009.65 1010.01 1010.33 1010.65 1011.09 1011.37 1011.49 1011.85 1012.13 1012.41 1012.73 1012.97 1013.17 1013.37 1013.69 1013.89 1013.97 1014.05 1014.05 1014.17 1014.29 1014.49 1014.77 1015.05 1015.25 1015.49 1015.65 1015.93 1016.21 1016.41 1016.61 1016.73 1016.93 1017.13 1017.29 1017.41 1017.61 1017.65 1017.69 1017.69
1008.49 1008.85 1009.09 1009.49 1009.97 1010.21 1010.49 1010.73 1010.97 1011.21 1011.65 1011.89 1012.13 1012.49 1012.77 1013.05 1013.25 1013.53 1013.77 1013.89 1013.93 1013.97 1014.05 1014.29 1014.53 1014.73 1015.01 1015.25 1015.45 1015.73 1015.93 1016.17 1016.41 1016.45 1016.77 1016.93 1016.97 1017.17 1017.21 1017.25 1017.33 1017.41
1008.21 1008.61 1008.89 1009.17 1009.37 1009.57 1009.73 1009.81 1010.05 1010.41 1010.93 1011.29 1011.65 1012.01 1012.33 1012.61 1012.97 1013.17 1013.49 1013.65 1013.77 1013.85 1013.93 1014.05 1014.29 1014.49 1014.69 1014.89 1015.17 1015.41 1015.61 1015.81 1016.05 1016.17 1016.45 1016.61 1016.69 1016.89 1016.85 1016.93 1017.09 1017.13
1007.85 1008.05 1008.29 1008.45 1008.61 1008.93 1009.25 1009.45 1009.37 1009.53 1009.97 1010.73 1011.05 1011.29 1011.77 1012.25 1012.61 1012.93 1013.21 1013.41 1013.53 1013.57 1013.69 1013.85 1014.01 1014.25 1014.45 1014.61 1014.89 1015.13 1015.21 1015.37 1015.45 1015.81 1016.13 1016.25 1016.37 1016.45 1016.53 1016.65 1016.73 1016.89
1007.29 1007.61 1007.89 1008.09 1008.21 1008.45 1008.85 1009.05 1008.85 1008.97 1009.33 1009.57 1010.21 1010.77 1011.33 1011.77 1012.25 1012.57 1012.85 1013.09 1013.21 1013.29 1013.41 1013.57 1013.77 1013.97 1014.17 1014.45 1014.61 1014.89 1015.01 1015.17 1015.29 1015.57 1015.85 1015.97 1016.01 1016.17 1016.21 1016.41 1016.57 1016.65
1006.93 1007.21 1007.53 1007.77 1007.89 1008.13 1008.53 1008.69 1008.21 1008.29 1008.65 1009.21 1009.49 1010.01 1010.61 1011.17 1011.69 1012.09 1012.33 1012.69 1012.85 1013.01 1013.13 1013.25 1013.45 1013.65 1013.89 1014.13 1014.41 1014.53 1014.69 1014.97 1015.05 1015.33 1015.57 1015.69 1015.77 1015.85 1015.97 1016.13 1016.29 1016.41
1006.73 1007.09 1007.29 1007.45 1007.73 1007.89 1008.13 1008.21 1008.09 1007.89 1007.89 1007.97 1008.69 1009.45 1010.01 1010.73 1011.17 1011.41 1011.73 1012.05 1012.41 1012.65 1012.73 1012.85 1013.05 1013.37 1013.53 1013.77 1014.01 1014.21 1014.37 1014.57 1014.81 1015.09 1015.25 1015.33 1015.49 1015.65 1015.65 1015.73 1015.89 1015.97
1006.37 1006.53 1006.81 1007.09 1007.41 1007.69 1007.93 1008.33 1008.17 1007.21 1007.09 1007.69 1008.41 1008.81 1009.29 1010.01 1010.53 1010.85 1011.21 1011.65 1012.05 1012.17 1012.25 1012.33 1012.57 1012.85 1013.13 1013.41 1013.65 1013.89 1014.09 1014.29 1014.53 1014.73 1014.93 1015.05 1015.25 1015.37 1015.37 1015.33 1015.45 1015.65
1006.05 1006.37 1006.57 1006.89 1007.21 1007.37 1007.65 1007.85 1007.85 1006.53 1006.53 1007.29 1007.93 1008.45 1008.81 1009.25 1009.85 1010.29 1010.73 1011.17 1011.61 1011.89 1012.09 1012.05 1012.05 1012.33 1012.57 1012.85 1013.09 1013.33 1013.65 1013.89 1014.01 1014.29 1014.53 1014.77 1014.93 1014.93 1014.97 1015.05 1015.29 1015.33
1005.93 1006.01 1006.37 1006.61 1006.81 1006.89 1007.09 1007.09 1007.05 1006.81 1006.33 1006.93 1007.33 1007.81 1008.37 1008.77 1009.29 1009.85 1010.33 1010.73 1011.09 1011.49 1011.81 1011.85 1011.81 1011.81 1012.01 1012.21 1012.41 1012.77 1013.09 1013.37 1013.61 1013.85 1014.01 1014.21 1014.33 1014.49 1014.65 1014.81 1014.85 1015.05
1005.65 1005.85 1006.13 1006.33 1006.41 1006.37 1006.45 1006.49 1006.53 1006.69 1006.53 1006.57 1006.97 1007.41 1007.73 1008.33 1008.93 1009.33 1009.89 1010.25 1010.57 1010.81 1011.17 1011.45 1011.41 1011.37 1011.49 1011.65 1011.89 1012.13 1012.45 1012.81 1013.13 1013.37 1013.57 1013.73 1013.85 1013.97 1014.13 1014.29 1014.49 1014.53
1005.41 1005.61 1005.77 1005.89 1006.01 1006.05 1005.97 1006.05 1006.17 1006.37 1006.53 1006.53 1006.49 1006.89 1007.29 1007.81 1008.41 1008.89 1009.21 1009.57 1009.81 1010.13 1010.57 1010.89 1011.09 1011.13 1011.01 1011.05 1011.29 1011.69 1012.05 1012.33 1012.61 1012.85 1013.09 1013.29 1013.49 1013.61 1013.73 1013.85 1014.01 1014.09
1005.05 1005.17 1005.29 1005.49 1005.57 1005.61 1005.61 1005.73 1005.81 1005.93 1006.17 1006.41 1006.37 1006.49 1006.97 1007.57 1007.97 1008.37 1008.61 1008.93 1009.25 1009.69 1010.09 1010.37 1010.65 1010.73 1010.73 1010.77 1010.93 1011.17 1011.53 1011.89 1012.17 1012.41 1012.61 1012.85 1012.97 1013.13 1013.25 1013.41 1013.57 1013.69
1004.41 1004.53 1004.81 1004.93 1005.01 1005.13 1005.25 1005.21 1005.37 1005.57 1005.77 1005.93 1006.21 1006.45 1006.73 1007.09 1007.45 1007.81 1008.09 1008.45 1008.81 1009.21 1009.49 1009.89 1010.25 1010.41 1010.37 1010.37 1010.45 1010.65 1011.01 1011.37 1011.65 1011.93 1012.17 1012.37 1012.53 1012.73 1012.89 1013.01 1013.13 1013.25
1003.65 1003.97 1004.17 1004.41 1004.61 1004.77 1004.85 1004.89 1004.97 1005.13 1005.33 1005.61 1005.89 1006.09 1006.25 1006.49 1006.81 1007.25 1007.77 1008.21 1008.49 1008.77 1009.09 1009.41 1009.73 1009.77 1009.69 1009.69 1009.97 1010.25 1010.45 1010.85 1011.17 1011.41 1011.69 1011.97 1012.21 1012.37 1012.49 1012.65 1012.77 1012.85
1003.17 1003.41 1003.65 1003.81 1004.09 1004.25 1004.29 1004.41 1004.65 1004.81 1005.01 1005.29 1005.49 1005.65 1005.85 1006.09 1006.49 1006.89 1007.29 1007.65 1008.01 1008.33 1008.57 1008.89 1009.01 1008.93 1008.85 1009.01 1009.25 1009.61 1010.01 1010.37 1010.73 1010.97 1011.25 1011.49 1011.81 1012.05 1012.21 1012.25 1012.25 1012.41
1002.65 1002.89 1003.09 1003.37 1003.41 1003.57 1003.77 1003.97 1004.21 1004.41 1004.69 1004.89 1005.05 1005.29 1005.49 1005.73 1006.09 1006.53 1006.77 1006.97 1007.33 1007.69 1008.05 1008.21 1008.21 1008.13 1008.29 1008.73 1008.97 1009.21 1009.49 1009.85 1010.21 1010.57 1010.85 1011.09 1011.33 1011.53 1011.73 1011.85 1011.97 1012.05
1002.17 1002.29 1002.57 1002.73 1002.85 1003.05 1003.17 1003.37 1003.65 1004.01 1004.25 1004.37 1004.61 1004.89 1005.05 1005.29 1005.73 1005.89 1006.05 1006.37 1006.73 1007.05 1007.37 1007.49 1007.45 1007.37 1007.93 1008.33 1008.57 1008.77 1008.97 1009.29 1009.73 1010.13 1010.41 1010.65 1010.81 1011.01 1011.17 1011.45 1011.65 1011.81
1001.77 1001.89 1002.01 1002.13 1002.21 1002.29 1002.53 1002.85 1003.17 1003.45 1003.69 1003.89 1004.13 1004.13 1004.45 1004.89 1005.01 1005.25 1005.57 1005.77 1006.13 1006.53 1006.77 1006.73 1006.77 1006.85 1007.49 1007.81 1008.13 1008.37 1008.61 1008.89 1009.21 1009.53 1009.93 1010.17 1010.37 1010.53 1010.73 1011.01 1011.29 1011.53
1001.33 1001.49 1001.53 1001.53 1001.57 1001.77 1002.01 1002.37 1002.65 1002.85 1002.93 1003.13 1003.37 1003.65 1004.05 1004.33 1004.49 1004.77 1004.97 1005.29 1005.53 1005.85 1005.97 1006.01 1006.13 1006.41 1006.97 1007.29 1007.61 1007.97 1008.29 1008.53 1008.65 1009.05 1009.37 1009.61 1009.81 1010.01 1010.25 1010.53 1010.81 1011.09
1002.69 1002.61 1002.45 1002.05 1001.65 1001.49 1001.65 1001.85 1002.05 1002.25 1002.49 1002.69 1002.93 1003.21 1003.49 1003.69 1003.85 1004.13 1004.33 1004.57 1004.89 1005.09 1005.37 1005.57 1005.57 1005.81 1006.37 1006.77 1007.17 1007.61 1007.97 1008.25 1008.25 1008.57 1008.81 1009.05 1009.21 1009.37 1009.61 1009.89 1010.21 1010.49
1001.65 1002.29 1002.81 1003.17 1003.53 1003.25 1002.45 1001.89 1001.81 1001.89 1002.09 1002.21 1002.45 1002.61 1002.77 1002.97 1003.25 1003.53 1003.89 1004.17 1004.29 1004.57 1005.01 1005.21 1004.93 1005.29 1005.81 1006.33 1006.81 1007.25 1007.77 1008.09 1007.89 1008.09 1008.33 1008.57 1008.77 1008.93 1009.13 1009.37 1009.65 1009.97
1000.97 1001.13 1001.33 1001.53 1001.93 1003.01 1003.93 1003.53 1002.65 1002.05 1001.81 1001.81 1002.21 1002.29 1002.49 1002.69 1002.77 1002.89 1002.97 1003.33 1003.73 1004.05 1004.41 1004.49 1004.49 1004.77 1005.29 1005.81 1006.37 1006.93 1007.65 1007.57 1007.53 1007.69 1007.93 1008.13 1008.29 1008.53 1008.77 1008.93 1009.17 1009.45
1000.33 1000.61 1001.05 1001.25 1001.57 1001.57 1001.81 1002.65 1003.41 1003.09 1002.13 1001.49 1001.81 1001.93 1002.13 1002.17 1002.25 1002.41 1002.45 1002.61 1003.01 1003.37 1003.57 1003.89 1003.93 1004.17 1004.77 1005.33 1005.89 1006.49 1006.57 1006.85 1007.09 1007.37 1007.61 1007.85 1008.01 1008.17 1008.37 1008.61 1008.73 1008.93
999.89 1000.05 1000.29 1000.69 1001.17 1001.29 1001.33 1001.45 1001.81 1002.73 1003.29 1002.25 1001.41 1001.37 1001.45 1001.57 1001.81 1002.09 1002.17 1002.21 1002.29 1002.53 1002.81 1003.29 1003.45 1003.85 1004.41 1004.85 1005.33 1005.77 1006.05 1006.05 1006.37 1006.73 1007.17 1007.41 1007.65 1008.01 1008.17 1008.33 1008.53 1008.69
999.65 999.81 999.93 1000.13 1000.41 1000.57 1000.65 1000.81 1000.93 1001.37 1001.97 1002.77 1002.21 1001.13 1001.05 1001.13 1001.41 1001.69 1001.89 1001.97 1001.89 1002.05 1002.33 1002.61 1002.93 1003.33 1003.97 1004.29 1004.73 1005.13 1005.29 1005.33 1005.69 1006.21 1006.41 1006.69 1007.21 1007.61 1008.01 1008.09 1008.17 1008.33
Wind_Speed
12 12 12 12 11 10 10 11 10 11 10 10 11 11 11 10 8 11 11 11 12 12 11 11 10 10 10 9 9 8 8 9 9 8 10 10 10 10 10 10 9 9
14 13 12 11 10 10 11 11 10 11 11 11 10 9 9 9 10 9 11 12 11 12 11 10 10 11 11 9 9 9 8 8 9 7 9 11 10 10 11 12 11 9
13 13 14 14 14 15 15 15 14 13 12 12 11 10 9 9 10 10 10 11 11 11 11 11 10 11 11 10 9 9 9 9 10 9 9 11 9 10 10 10 9 10
15 15 16 16 15 15 14 13 13 13 13 12 13 12 10 9 10 11 10 11 11 12 11 11 11 11 11 11 10 9 10 9 9 8 9 8 9 9 9 8 9 8
17 16 14 14 14 13 13 14 15 14 14 15 12 12 12 11 11 11 11 11 11 12 11 12 11 11 11 11 11 10 10 9 8 8 9 10 9 9 9 8 9 10
14 14 14 14 13 13 13 14 15 15 15 13 14 13 12 13 12 13 13 13 12 12 12 12 12 11 12 12 11 11 10 10 9 9 10 11 10 9 8 9 9 10
16 15 16 14 13 13 13 14 13 14 14 15 13 13 13 13 14 15 15 14 14 13 14 13 13 12 11 11 12 12 11 11 10 10 11 11 9 10 9 9 10 10
17 15 15 14 14 13 12 11 13 14 12 11 13 14 14 15 15 14 13 14 14 15 15 14 14 14 12 12 13 13 13 10 11 12 12 12 10 11 11 10 9 10
15 14 14 15 15 13 13 13 12 11 11 13 13 13 13 14 15 14 14 14 14 14 14 14 15 14 13 13 14 14 14 12 12 12 13 13 12 13 12 10 10 11
14 14 15 15 15 13 14 13 11 10 11 13 14 12 13 13 13 14 14 14 15 15 15 15 15 15 14 14 15 15 14 14 13 13 13 13 13 13 12 11 12 11
14 13 14 14 15 13 15 14 13 10 10 13 13 13 13 13 12 13 14 14 15 17 17 16 16 16 16 15 14 14 14 14 13 13 13 13 13 13 12 12 12 13
13 13 14 15 15 14 15 14 13 11 11 11 13 14 13 13 14 13 14 16 17 17 16 16 15 15 16 16 15 14 13 13 13 13 13 13 13 12 12 12 12 13
13 14 14 14 14 15 14 13 13 12 12 12 11 13 13 13 14 15 14 15 17 16 16 16 16 15 15 15 15 14 14 14 13 13 13 12 12 12 12 12 12 12
14 14 14 14 13 14 14 14 14 13 13 12 11 13 14 15 15 16 15 14 15 15 16 14 14 14 15 15 14 15 14 14 14 13 13 12 11 11 11 11 12 12
14 13 13 14 14 14 14 14 14 13 12 12 12 13 12 14 15 15 14 14 14 15 15 14 14 15 14 14 15 15 14 14 14 14 13 13 11 11 11 11 11 11
14 13 14 15 15 16 16 15 14 13 13 13 13 14 14 13 14 14 15 16 16 16 15 14 14 13 16 21 18 14 14 12 12 13 13 12 12 11 11 11 12 11
14 14 14 15 16 16 15 15 15 13 14 14 14 14 15 14 14 15 15 15 16 16 16 15 15 14 20 19 21 21 16 13 13 12 12 12 12 12 12 11 10 10
14 15 15 16 16 16 17 16 14 14 15 15 15 15 14 13 14 16 17 16 14 16 16 16 16 19 19 20 21 22 20 15 12 11 11 12 12 12 11 10 10 10
14 15 16 16 16 17 16 15 16 16 16 16 17 16 14 15 16 16 16 16 16 16 17 17 16 19 19 21 22 22 22 18 12 12 12 12 12 12 12 11 9 9
13 15 16 16 16 16 16 16 17 17 17 16 15 15 15 15 16 17 16 16 16 16 17 17 16 16 20 22 22 23 22 20 13 13 12 12 13 13 11 12 11 11
8 7 8 10 13 15 15 16 17 16 17 15 14 15 16 16 17 17 16 16 16 16 16 15 14 18 19 22 22 23 23 20 14 12 12 12 13 13 13 13 12 12
11 12 10 9 10 12 12 15 15 16 17 15 14 14 14 14 14 14 15 15 16 16 14 15 15 18 19 21 22 21 22 16 14 14 13 12 12 12 12 12 12 12
9 12 14 14 14 11 12 13 13 14 15 13 14 14 14 15 15 15 15 16 16 15 16 16 15 16 20 21 21 22 17 14 14 12 12 13 12 11 12 12 11 12
8 9 10 10 11 14 15 12 11 13 13 13 14 15 15 15 14 14 14 14 15 16 16 16 15 14 19 20 21 22 21 16 13 12 12 11 11 11 10 10 12 18
5 7 10 11 10 12 12 13 14 12 13 13 13 14 15 14 13 13 13 13 14 16 18 18 15 11 18 21 23 24 21 14 13 12 12 12 11 10 9 9 10 13
5 6 9 10 12 13 13 13 11 11 11 11 14 13 13 13 12 12 14 13 13 14 14 16 16 11 14 22 23 24 25 16 12 13 14 13 10 10 10 9 10 10
Wind_Direction
189 184 187 188 186 183 183 182 177 179 184 183 192 198 206 209 206 208 210 210 207 205 202 197 195 199 200 195 194 189 192 196 199 200 204 204 210 206 208 210 208 208
189 187 190 186 184 182 184 185 181 179 184 188 191 191 202 204 211 207 210 212 210 209 204 199 195 198 200 200 196 194 196 196 202 194 201 207 211 206 213 210 210 209
188 191 191 188 191 190 186 185 182 182 182 188 187 192 197 201 206 209 210 212 211 210 206 202 197 197 199 201 197 200 202 203 206 196 198 209 208 207 214 211 213 208
195 195 195 196 196 196 194 190 185 180 177 179 191 192 192 196 201 206 209 208 211 209 206 203 200 196 199 199 197 205 209 210 210 194 203 210 211 212 214 209 212 212
195 198 199 200 200 197 194 192 183 180 180 184 180 183 190 193 197 204 206 207 209 209 204 204 200 198 195 197 197 205 208 213 209 201 207 212 212 209 215 206 211 213
199 199 200 201 199 194 195 200 190 180 178 175 181 182 190 193 195 201 205 206 207 207 205 203 201 199 195 196 196 205 204 209 210 203 211 216 215 211 210 207 210 213
198 199 203 203 202 204 204 203 194 184 182 181 174 181 185 191 198 203 204 206 205 204 204 202 201 199 196 195 197 202 205 207 206 205 212 219 215 215 214 210 212 217
200 202 205 205 205 206 209 220 209 189 180 171 176 186 182 192 198 202 204 205 208 210 205 202 201 200 196 195 198 201 203 202 207 205 211 218 212 217 214 214 212 217
201 203 205 206 208 207 212 214 224 197 175 176 185 186 187 191 197 200 202 203 209 213 211 207 202 201 198 198 200 200 201 203 205 204 208 211 212 216 213 211 212 216
202 206 206 208 209 211 212 217 218 217 184 186 190 185 186 193 195 198 199 202 207 211 213 212 207 203 200 202 202 200 202 203 203 206 208 211 212 213 212 208 212 214
206 205 209 211 213 211 214 216 217 217 204 192 189 187 189 188 194 196 199 202 206 210 211 211 210 204 202 203 203 202 203 203 204 206 208 211 213 213 210 208 211 214
207 207 212 213 214 216 216 216 215 215 212 204 193 189 189 191 193 196 201 204 207 210 210 213 211 208 207 204 202 202 203 206 207 207 209 211 213 213 211 209 211 213
206 210 210 213 214 217 217 217 217 212 208 207 200 194 190 193 197 199 202 205 207 207 210 211 211 209 209 207 204 202 203 205 208 209 210 211 213 212 211 210 210 212
209 209 210 213 216 218 217 216 215 211 209 206 201 200 197 197 198 200 203 205 207 207 210 210 210 211 210 208 205 202 201 205 207 209 210 212 213 212 210 210 209 209
206 205 207 210 212 217 220 218 215 211 207 204 203 204 201 201 200 201 203 204 207 207 209 208 209 211 210 206 203 201 201 203 205 208 209 211 213 212 211 211 210 209
205 204 204 206 208 212 216 215 213 211 208 205 204 203 203 201 200 202 204 205 206 208 208 208 211 214 211 203 197 198 198 202 204 208 208 210 210 211 213 212 212 209
203 203 203 204 208 211 214 212 211 210 210 210 207 203 203 200 199 202 206 207 206 206 207 209 213 216 209 195 196 194 195 199 202 205 206 209 209 209 213 211 213 211
204 204 203 206 206 209 210 211 210 209 211 211 209 207 204 200 200 204 207 207 207 208 209 212 216 216 200 194 193 193 194 196 199 202 203 207 209 210 212 209 208 209
211 206 205 206 208 209 209 208 208 210 212 211 210 208 205 203 205 205 207 207 206 208 212 215 219 210 196 194 194 193 193 191 199 199 200 205 206 208 209 207 204 205
220 213 210 209 209 208 207 207 207 210 210 210 211 209 207 207 208 209 209 207 207 209 214 217 218 206 195 195 193 191 191 191 198 196 200 203 204 204 205 204 201 201
245 301 287 253 225 213 208 208 208 210 210 209 208 208 207 208 207 208 209 208 208 211 215 218 220 205 195 195 193 190 191 191 200 198 201 204 204 202 201 201 199 200
171 203 220 260 305 289 244 219 212 209 210 209 210 211 211 211 213 210 210 210 212 212 214 220 222 202 195 193 191 190 185 193 202 203 202 203 203 203 200 199 197 197
204 198 205 211 211 227 273 271 241 224 216 211 211 212 210 210 210 208 209 208 208 208 211 219 225 202 192 191 188 184 178 198 202 205 205 204 204 200 200 197 195 194
206 209 212 212 210 212 212 221 249 254 237 212 211 210 212 212 212 213 212 210 207 209 209 216 223 202 188 187 184 180 183 192 200 203 208 205 205 201 198 199 199 195
212 209 211 210 207 215 213 211 211 220 243 242 220 213 214 212 212 215 217 214 211 211 210 214 223 200 183 184 183 183 186 194 193 201 203 206 201 200 198 198 201 201
219 200 207 210 212 216 219 216 210 206 222 237 243 223 213 211 209 212 216 218 215 213 213 213 218 206 186 185 184 185 187 189 192 196 206 201 192 193 193 204 202 201